Погода в Дятьковичах

Россия / Брянская область     53°25′49″N   33°46′55″E
темп.,
°C
ветер,
м/с
пор.,
м/с
влажн.,
%
обл.,
%
осадки,
мм/ч
давл.,
гПа
погр.,
м
18 сентября, сб
сб1800:00+6в51388100 0.2 1017599
03:00+6в51391100 0.4 1017625
06:00+6в61591100 0.6 1015654
09:00+5в71794100 6.7 1015712
12:00+5в81795100 3.1 1016737
15:00+6в81795100 9.6 1015803
18:00+6в81796100 6.6 1013806
21:00+7в81896100 18.3 1012838
19 сентября, вс
вс1900:00+7в81895100 7.6 1011935
03:00+7вюв71496100 13.4 1011950
06:00+7вюв61297100 2.7 1010650
09:00+7вюв51397100 10.3 1011722
12:00+7вюв51297100 4.1 1011693
15:00+7в41097100 8.0 1011657
18:00+7в4997100 0.2 1011596
21:00+7в4898100 0.2 1010484
20 сентября, пн
пн2000:00+7всв4998100 0.0 1010549
03:00+7всв4998100 0.0 1009479
06:00+7всв4998100 0.0 1009503
09:00+7всв51196100 0.1 1009568
12:00+7св51296100 0.4 1008615
15:00+7св51296100 5.6 1008652
18:00+7св51096100 0.3 1008599
21:00+6св41097100 2.6 1009565
21 сентября, вт
вт2100:00+6ссв4998100 3.4 1008488
03:00+6с3798100 6.9 1008460
06:00+6ссз3698100 4.1 1008403
09:00+6с3698100 4.9 1008463
12:00+6ссз3697100 0.8 1008462
15:00+5сз4897100 1.3 1009497
18:00+5сз4997100 0.8 1010496
21:00+5ссз5997100 1.4 1011477
22 сентября, ср
ср2200:00+4ссз5997100 0.4 1012432
03:00+3сз4998100 0.6 1013452
06:00+3сз4998100 0.2 1013582
09:00+3сз4898100 0.8 1013620
12:00+4сз4697100 1.1 1013683
15:00+4сз3698100 2.1 1013704
18:00+4сз3698100 0.4 1013663
21:00+4сз3798100 0.7 1013460